Indianapolis, IN

4:01 AM EDT on May 30, 2017 (GMT -0400)
Indianapolis International

Weather History for KIND - February, 2015

Change the Weather History Date:

Sunday, February 8, 2015

  Actual Average Record
Temperature  
Mean Temperature 47 °F 30 °F  
Max Temperature 57 °F 38 °F 68 °F (1937)
Min Temperature 36 °F 22 °F -14 °F (1895)
Degree Days  
Heating Degree Days 18 35  
Month to date heating degree days 286 284  
Since 1 July heating degree days 3763 3505  
Cooling Degree Days 0 0  
Month to date cooling degree days 0 0  
Year to date cooling degree days 0 0  
Moisture  
Dew Point 41 °F    
Average Humidity 72    
Maximum Humidity 85    
Minimum Humidity 59    
Precipitation  
Precipitation T in 0.08 in 0.78 in (1969)
Month to date precipitation 0.37 0.65  
Year to date precipitation 2.18 3.31  
Snow  
Snow 0.00 in 0.30 in 3.40 in (1982)
Month to date snowfall 2.6 2.2  
Since 1 July snowfall 8.5 18.8  
Snow Depth 0.00 in    
Sea Level Pressure  
Sea Level Pressure 29.74 in    
Wind  
Wind Speed 16 mph (WSW)    
Max Wind Speed 28 mph    
Max Gust Speed 35 mph    
Visibility 9 miles    
Events      
T = Trace of Precipitation, MM = Missing Value Source: NWS Daily Summary

Daily Weather History Graph

Daily Weather History Graph

Search for Another Location

Airport or City:

Trip Planner

Search our weather history database for the weather conditions in past years. The results will help you decide how hot, cold, wet, or windy it might be!

Date:

Astronomy

Feb. 08, 2015 Rise Set
Actual Time 7:46 AM EST 6:13 PM EST
Civil Twilight 7:18 AM EST 6:41 PM EST
Nautical Twilight 6:46 AM EST 7:13 PM EST
Astronomical Twilight 6:14 AM EST 7:44 PM EST
Moon 10:50 PM EST (2/8) 9:53 AM EST (2/8)
Length of Visible Light 11h 22m
Length of Day
10h 26m
Waning Gibbous, 81% of the Moon is Illuminated
Feb 8
Waning Gibbous
Feb 11
Last Quarter
Feb 18
New
Feb 25
First Quarter
Mar 5
Full

Hourly Weather History & Observations

Time (EST) Temp. Windchill Dew Point Humidity Pressure Visibility Wind Dir Wind Speed Gust Speed Precip Events Conditions
12:54 AM 51.1 °F - 37.9 °F 61% 29.75 in 10.0 mi SW 25.3 mph 32.2 mph N/A   Scattered Clouds
1:54 AM 50.0 °F - 37.9 °F 63% 29.73 in 10.0 mi SW 24.2 mph 33.4 mph N/A   Scattered Clouds
2:54 AM 48.9 °F - 37.9 °F 66% 29.73 in 10.0 mi SW 20.7 mph 28.8 mph N/A   Partly Cloudy
3:54 AM 48.9 °F - 39.0 °F 69% 29.71 in 10.0 mi SW 21.9 mph - N/A   Mostly Cloudy
5:54 AM 50.0 °F - 39.9 °F 68% 29.70 in 10.0 mi SW 19.6 mph 26.5 mph N/A   Overcast
6:54 AM 48.9 °F - 39.9 °F 71% 29.70 in 10.0 mi SW 15.0 mph - N/A   Mostly Cloudy
7:54 AM 48.0 °F - 39.9 °F 74% 29.71 in 10.0 mi SW 18.4 mph 24.2 mph N/A   Mostly Cloudy
8:54 AM 48.9 °F - 41.0 °F 74% 29.71 in 10.0 mi SW 13.8 mph - N/A   Mostly Cloudy
9:54 AM 51.1 °F - 42.1 °F 71% 29.71 in 10.0 mi SW 18.4 mph - N/A   Mostly Cloudy
10:54 AM 52.0 °F - 43.0 °F 71% 29.71 in 10.0 mi SW 17.3 mph - N/A   Mostly Cloudy
11:49 AM 53.6 °F - 44.6 °F 72% 29.71 in 10.0 mi SW 17.3 mph - N/A   Mostly Cloudy
11:54 AM 54.0 °F - 44.1 °F 69% 29.71 in 10.0 mi SW 19.6 mph 26.5 mph N/A   Mostly Cloudy
12:54 PM 55.0 °F - 44.1 °F 67% 29.70 in 10.0 mi WSW 17.3 mph - N/A   Overcast
1:54 PM 55.0 °F - 44.1 °F 67% 29.68 in 10.0 mi SW 21.9 mph 28.8 mph N/A   Overcast
2:54 PM 54.0 °F - 45.0 °F 72% 29.67 in 10.0 mi WSW 15.0 mph - N/A   Overcast
3:54 PM 53.1 °F - 46.0 °F 77% 29.68 in 10.0 mi WSW 9.2 mph - N/A   Overcast
4:54 PM 52.0 °F - 46.0 °F 80% 29.71 in 9.0 mi WSW 5.8 mph - 0.00 in   Overcast
5:49 PM 51.8 °F - 44.6 °F 76% 29.71 in 10.0 mi SSW 5.8 mph - N/A   Overcast
5:54 PM 50.0 °F - 45.0 °F 83% 29.71 in 10.0 mi SSW 4.6 mph - N/A   Overcast
6:11 PM 50.0 °F - 45.0 °F 83% 29.72 in 10.0 mi SSW 5.8 mph - N/A   Overcast
6:54 PM 50.0 °F - 45.0 °F 83% 29.74 in 10.0 mi WSW 4.6 mph - N/A   Overcast
7:46 PM 46.0 °F 40.2 °F 39.9 °F 79% 29.76 in 9.0 mi NNW 12.7 mph - N/A   Overcast
7:54 PM 45.0 °F 39.7 °F 39.0 °F 80% 29.77 in 9.0 mi NNW 10.4 mph - N/A   Overcast
8:08 PM 45.0 °F 41.2 °F 39.0 °F 80% 29.76 in 9.0 mi North 6.9 mph - N/A   Overcast
8:54 PM 43.0 °F 35.4 °F 37.0 °F 80% 29.80 in 7.0 mi North 16.1 mph - N/A   Overcast
9:54 PM 41.0 °F 33.5 °F 35.1 °F 79% 29.83 in 4.0 mi NNW 13.8 mph - N/A   Haze
10:43 PM 37.9 °F 32.7 °F 34.0 °F 86% 29.82 in 4.0 mi North 6.9 mph - N/A   Overcast
10:54 PM 37.9 °F 32.1 °F 34.0 °F 86% 29.83 in 3.0 mi NNW 8.1 mph - N/A   Overcast
11:14 PM 37.0 °F 28.1 °F 34.0 °F 89% 29.83 in 3.0 mi North 15.0 mph - N/A   Overcast
11:54 PM 36.0 °F 28.5 °F 33.1 °F 89% 29.83 in 3.0 mi NNW 10.4 mph - N/A   Overcast